Vancouver, British Columbia

1:22 AM PDT on May 27, 2017 (GMT -0700)
Vancouver International Airport

Weather History for CYVR - September, 2013

Change the Weather History Date:

Friday, September 20, 2013

  Actual Average Record
Temperature  
Mean Temperature 60 °F -  
Max Temperature 66 °F 59 °F 69 °F (2015)
Min Temperature 53 °F 46 °F 46 °F (2002)
Degree Days  
Heating Degree Days 6    
Growing Degree Days 10 (Base 50)    
Moisture  
Dew Point 53 °F    
Average Humidity 80    
Maximum Humidity 100    
Minimum Humidity 58    
Precipitation  
Precipitation 0.00 in 0.13 in - ()
Sea Level Pressure  
Sea Level Pressure 29.66 in    
Wind  
Wind Speed 6 mph ()    
Max Wind Speed 9 mph    
Max Gust Speed -    
Visibility 16.1 miles    
Events Rain    
Averages and records for this station are not official NWS values.
T = Trace of Precipitation, MM = Missing Value Source: Averaged Metar Reports

Daily Weather History Graph

Daily Weather History Graph

Search for Another Location

Airport or City:

Trip Planner

Search our weather history database for the weather conditions in past years. The results will help you decide how hot, cold, wet, or windy it might be!

Date:

Astronomy

Sep. 20, 2013 Rise Set
Actual Time 6:56 AM PDT 7:14 PM PDT
Civil Twilight 6:25 AM PDT 7:45 PM PDT
Nautical Twilight 5:47 AM PDT 8:23 PM PDT
Astronomical Twilight 5:08 AM PDT 9:02 PM PDT
Moon 7:38 PM PDT (9/20) 8:28 AM PDT (9/20)
Length of Visible Light 13h 20m
Length of Day
12h 17m
Full, 98% of the Moon is Illuminated
Sep 20
Full
Sep 26
Last Quarter
Oct 4
New
Oct 11
First Quarter
Oct 18
Full

Hourly Weather History & Observations

Time (PDT) Temp. Dew Point Humidity Pressure Visibility Wind Dir Wind Speed Gust Speed Precip Events Conditions
12:00 AM 59.0 °F 51.8 °F 77% 29.75 in 20.0 mi East 5.8 mph - N/A   Partly Cloudy
1:00 AM 57.2 °F 51.8 °F 82% 29.75 in 20.0 mi East 9.2 mph - N/A   Partly Cloudy
2:00 AM 57.2 °F 50.0 °F 77% 29.75 in 20.0 mi East 6.9 mph - N/A   Partly Cloudy
3:00 AM 57.2 °F 50.0 °F 77% 29.73 in 20.0 mi East 8.1 mph - N/A   Partly Cloudy
4:00 AM 53.6 °F 48.2 °F 82% 29.72 in 20.0 mi East 9.2 mph - N/A   Scattered Clouds
5:00 AM 54 °F 49 °F 76% 29.70 in 19 mi East 8.1 mph - -   Clear
5:00 AM 53.6 °F 48.2 °F 82% 29.70 in 20.0 mi East 8.1 mph - N/A   Partly Cloudy
6:00 AM 53.6 °F 48.2 °F 82% 29.68 in 20.0 mi ESE 8.1 mph - N/A   Mostly Cloudy
7:00 AM 53.6 °F 48.2 °F 82% 29.68 in 30.0 mi East 8.1 mph - N/A   Overcast
8:00 AM 55.4 °F 50.0 °F 82% 29.67 in 30.0 mi East 8.1 mph - N/A   Overcast
9:00 AM 59.0 °F 50.0 °F 72% 29.66 in 30.0 mi ESE 6.9 mph - N/A   Overcast
10:00 AM 60.8 °F 50.0 °F 68% 29.66 in 30.0 mi ESE 6.9 mph - N/A   Overcast
11:00 AM 63 °F 52 °F 58% 29.65 in 28 mi ESE 5.8 mph - -   Overcast
11:00 AM 62.6 °F 51.8 °F 68% 29.65 in 30.0 mi SE 5.8 mph - N/A   Overcast
12:00 PM 66.2 °F 51.8 °F 60% 29.64 in 30.0 mi SSE 4.6 mph - N/A   Overcast
1:00 PM 62.6 °F 55.4 °F 77% 29.63 in 20.0 mi WNW 9.2 mph - N/A   Overcast
2:00 PM 62.6 °F 55.4 °F 77% 29.61 in 20.0 mi WNW 8.1 mph - N/A   Overcast
3:00 PM 64.4 °F 50.0 °F 59% 29.60 in 20.0 mi West 6.9 mph - N/A   Overcast
4:00 PM 62.6 °F 55.4 °F 77% 29.59 in 20.0 mi West 9.2 mph - N/A   Overcast
5:00 PM 62.6 °F 55.4 °F 77% 29.58 in 20.0 mi NW 5.8 mph - N/A   Overcast
6:00 PM 60.8 °F 57.2 °F 88% 29.59 in 20.0 mi WNW 8.1 mph - N/A   Overcast
7:00 PM 60.8 °F 57.2 °F 88% 29.61 in 20.0 mi WNW 8.1 mph - N/A   Overcast
7:44 PM 59.0 °F 57.2 °F 94% 29.63 in 15.0 mi West 6.9 mph - N/A Rain Rain Showers
7:55 PM 59.0 °F 57.2 °F 94% 29.63 in 12.0 mi WNW 2.3 mph - N/A Rain Light Rain Showers
8:00 PM 59.0 °F 57.2 °F 94% 29.63 in 8.0 mi Calm Calm - N/A Rain Light Rain Showers
9:00 PM 59.0 °F 55.4 °F 88% 29.63 in 12.0 mi ENE 9.2 mph - N/A Rain Light Rain Showers
10:00 PM 59.0 °F 55.4 °F 88% 29.65 in 8.0 mi East 8.1 mph - N/A Rain Light Rain Showers
11:00 PM 57.2 °F 55.4 °F 94% 29.65 in 6.0 mi SE 6.9 mph - N/A Rain Light Rain
11:39 PM 57.2 °F 57.2 °F 100% 29.64 in 5.0 mi East 8.1 mph - N/A Rain Rain
11:57 PM 57.2 °F 55.4 °F 94% 29.65 in 6.0 mi ESE 5.8 mph - N/A Rain Light Rain